Tracking 29892 objects as of 21-Nov-2024
HD Live streaming from Space Station
objects crossing your sky now

ONEWEB-0392

Track ONEWEB-0392 now!
10-day predictions
ONEWEB-0392 is classified as:


NORAD ID: 50472
Int'l Code: 2021-132D
Perigee: 1,199.6 km
Apogee: 1,202.1 km
Inclination: 87.9 °
Period: 109.3 minutes
Semi major axis: 7571 km
RCS: Unknown
Launch date: December 27, 2021
Source: United Kingdom (UK)
Launch site: TYURATAM MISSILE AND SPACE COMPLEX (TTMTR)
Your satellite tracking list
Your tracking list is empty




NASA's NSSDC Master Catalog

Two Line Element Set (TLE):
1 50472U 21132D   24325.38284444  .00000085  00000-0  18599-3 0  9998
2 50472  87.9072 120.1591 0001653 114.2206 245.9099 13.17650145142551
Source of the keplerian elements: AFSPC